Meath Environmental Platform

Observations for Trim Patrick St

Time AQI Temp °C Hum % Pres Pa CO μg/m³ H₂S μg/m³ NO μg/m³ NO₂ μg/m³ O₃ μg/m³ SO₂ μg/m³ PM1 μg/m³ PM2.5 μg/m³ PM10 μg/m³
Sunday 9 August 2026
01:39 2 18.8 68 80,101 0 1.59 1.91 19.55 33.12 0 2.86 6.76 7.44
01:38 2 18.9 66 80,126 0 1.95 2.15 15.04 43.23 0.68 4.57 9.07 9.97
01:37 2 18.9 67 80,215 0 1.51 1.88 22.59 34.87 0.19 4.57 8.22 9.04
01:36 2 18.8 68 80,256 0 0.7 1.74 13.44 39.54 0.75 3.71 7.49 8.24
01:35 2 18.9 68 80,290 0 0.69 1.64 14.02 38.05 0.44 5.43 10.39 11.43
01:34 2 18.9 68 80,274 0 1.46 1.94 12.67 38.27 0.87 3.71 7.49 8.24
01:33 2 18.9 67 80,242 0 3.06 2.06 17.68 39 0.46 3.71 8.99 9.89
01:30 2 18.9 68 80,132 0 1.85 1.99 13.06 38.53 0.71 4.57 8.94 9.84
01:29 2 18.9 67 80,156 0 3.37 1.8 23 42.16 0.16 3.71 7.51 8.26
01:28 2 18.9 68 80,148 0 2.61 1.74 21.34 39.13 0.11 4.57 8.22 9.04
01:27 2 18.9 67 80,128 0 3.06 1.93 25.43 35.97 0.08 4.57 8.25 9.08
01:25 2 18.9 67 80,197 0 3.42 1.88 17.67 41.84 0.54 4.57 8.98 9.88
01:22 2 18.9 67 80,183 0 1.35 2 19.15 38.66 0.27 5.43 8.96 9.86
01:21 2 18.9 67 80,236 0 0.14 1.8 12.78 38.93 0.17 3.71 7.51 8.26
01:20 2 19 67 80,351 0 3 1.73 13.33 46.89 0.83 5.43 8.95 9.84
01:19 2 19 67 80,406 0 2.56 1.64 19.43 39.02 0.37 2.86 6.8 7.48
01:18 2 19 66 80,441 0 3.16 1.65 20.46 34.39 0.45 4.57 9.09 10
01:17 2 19 67 80,396 0 3 1.57 18.69 45.3 0.99 3.71 7.51 8.26
01:16 2 19 67 80,457 0 2.4 1.49 12.82 38.47 0.83 2.86 7.5 8.25
01:15 2 19 67 80,482 0 2.69 1.71 18.67 40.02 0.66 3.71 7.5 8.25